Home > Weather > Topeka > Past weeks

Flag for U.S.A. Weather for the Past 2 Weeks in Topeka, Kansas, U.S.A.

Now
42 °F

Clear.


Feels Like: 38 °F
Forecast: 35 / 50 °F
Wind: 7 mph from Southwest

Location: Philip Billard Municipal Airport

Current Time: Feb 7, 2016 at 5:01:07 AM

Latest Report: Feb 7, 2016 at 3:53 AM


Visibility: 10 mi

Pressure: 30.00 "Hg

Humidity: 49%

Dew point: 24 °F

Location of TopekaLocation

Historic Weather in Topeka — Graph

°F

Topeka Temperature Yesterday

Maximum temperature yesterday: 50 °F (at 1:53 PM)
Minimum temperature yesterday: 26 °F (at 2:53 AM)
Average temperature yesterday: 38 °F

High & Low Weather Summary for the Past Weeks

 TemperatureHumidityPressure
High67 °F (Jan 29, 2:53 PM)93% (Feb 2, 6:53 AM)30.45 "Hg (Feb 2, 6:53 AM)
Low17 °F (Jan 23, 10:53 PM)27% (Jan 29, 2:53 PM)29.34 "Hg (Feb 2, 1:53 PM)
Average37 °F68%29.99 "Hg
* Reported Jan 23 3:53 AM — Feb 7 3:53 AM, Topeka, Weather by CustomWeather, © 2016

Note: Actual official high and low records may vary slightly from our data, if they occured in-between our weather recording intervals... More about our weather records

Advertising

Topeka Weather History for the Previous 24 Hours

 ConditionsComfort  
Time TempWeatherWind HumidityBarometerVisibility
3:53 AM
Sun, Feb 7
42 °FClear.7 mph49%30.00 "Hg10 mi
2:53 AM41 °FClear.10 mph53%30.01 "Hg10 mi
1:53 AM41 °FClear.12 mph53%30.02 "Hg10 mi
12:53 AM40 °FClear.12 mph55%30.05 "Hg10 mi
11:53 PM
Sat, Feb 6
41 °FClear.9 mph55%30.08 "Hg10 mi
10:53 PM42 °FClear.10 mph53%30.09 "Hg10 mi
9:53 PM41 °FClear.9 mph55%30.10 "Hg10 mi
8:53 PM40 °FClear.9 mph58%30.12 "Hg10 mi
7:53 PM43 °FClear.9 mph53%30.15 "Hg10 mi
6:53 PM43 °FClear.5 mph53%30.17 "Hg10 mi
5:53 PM47 °FClear.7 mph46%30.19 "Hg10 mi
4:53 PM49 °FSunny.10 mph43%30.20 "Hg10 mi
3:53 PM50 °FSunny.15 mph41%30.21 "Hg10 mi
2:53 PM50 °FSunny.12 mph41%30.23 "Hg10 mi
1:53 PM50 °FSunny.9 mph43%30.26 "Hg10 mi
12:53 PM46 °FSunny.9 mph54%30.29 "Hg10 mi
11:53 AM42 °FSunny.6 mph62%30.32 "Hg10 mi
10:53 AM39 °FSunny.No wind70%30.34 "Hg10 mi
9:53 AM34 °FSunny.5 mph82%30.35 "Hg10 mi
8:53 AM31 °FSunny.3 mph85%30.34 "Hg10 mi
7:53 AM28 °FSunny.No wind85%30.33 "Hg10 mi
6:53 AM27 °FClear.5 mph85%30.33 "Hg10 mi
5:53 AM27 °FClear.3 mph85%30.31 "Hg10 mi
Weather by CustomWeather, © 2016

See weather overviewHow to use our weather pages